GW3607 Weather Reports


time (UTC)temp
C
wind
direction
speed
KPH
gust
KPH
rain 1hr
cm
rain 24hr
cm
rain mn
cm
humidity
%
barometer
mb
20260509024538 18 12 3.2 11.3 0.00 0.00 0.00 50 1027.8
20260509024034 18 18 3.2 9.7 0.00 0.00 0.00 52 1027.7
20260509023536 17 44 4.8 16.1 0.00 0.00 0.00 51 1027.8
20260509023043 17 349 4.8 16.1 0.00 0.00 0.00 53 1027.9
20260509022539 17 52 4.8 20.9 0.00 0.00 0.00 54 1027.8
20260509022036 17 74 4.8 20.9 0.00 0.00 0.00 54 1027.8
20260509021543 16 59 6.4 20.9 0.00 0.00 0.00 54 1027.7
20260509021034 16 9 8.0 19.3 0.00 0.00 0.00 55 1027.9
20260509020534 16 24 4.8 19.3 0.00 0.00 0.00 57 1027.8
20260509020046 16 56 6.4 17.7 0.00 0.00 0.00 56 1027.9
20260509015535 16 74 8.0 17.7 0.00 0.00 0.00 57 1028.0
20260509015035 15 20 4.8 19.3 0.00 0.00 0.00 59 1028.0
20260509014548 15 22 6.4 19.3 0.00 0.00 0.00 59 1028.0
20260509014034 15 89 6.4 19.3 0.00 0.00 0.00 60 1028.1
20260509013534 15 86 8.0 19.3 0.00 0.00 0.00 60 1028.1
20260509013053 15 91 4.8 19.3 0.00 0.00 0.00 61 1028.0
20260509012535 15 53 6.4 19.3 0.00 0.00 0.00 60 1028.1
20260509012035 15 41 6.4 22.5 0.00 0.00 0.00 61 1028.2
20260509011546 14 14 6.4 22.5 0.00 0.00 0.00 62 1028.2
20260509011034 14 86 6.4 22.5 0.00 0.00 0.00 62 1028.3
20260509010535 13 81 6.4 25.7 0.00 0.00 0.00 63 1028.3
20260509010050 13 315 4.8 25.7 0.00 0.00 0.00 64 1028.4
20260509005536 13 77 9.7 25.7 0.00 0.00 0.00 64 1028.2
20260509005036 13 116 11.3 25.7 0.00 0.00 0.00 64 1028.1
20260509004559 13 110 11.3 27.4 0.00 0.00 0.00 65 1028.0
20260509004034 12 74 11.3 29.0 0.00 0.00 0.00 65 1028.0
20260509003534 12 14 11.3 29.0 0.00 0.00 0.00 66 1027.9
20260509003046 12 56 11.3 32.2 0.00 0.00 0.00 66 1027.9
20260509002534 12 101 12.9 32.2 0.00 0.00 0.00 66 1027.8
20260509002034 12 92 14.5 32.2 0.00 0.00 0.00 66 1027.9
20260509001545 12 49 14.5 25.7 0.00 0.00 0.00 67 1027.9
20260509001034 12 82 12.9 24.1 0.00 0.00 0.00 67 1027.8
20260509000536 12 82 11.3 27.4 0.00 0.00 0.00 67 1027.8
20260509000047 11 35 11.3 27.4 0.00 0.00 0.00 67 1027.7
20260508235535 11 109 11.3 30.6 0.00 0.00 0.00 67 1027.7
20260508235036 11 47 12.9 30.6 0.00 0.00 0.00 67 1027.6
20260508234539 11 77 9.7 25.7 0.00 0.00 0.00 67 1027.7
20260508234039 11 39 12.9 25.7 0.00 0.00 0.00 67 1027.5
20260508233535 11 106 12.9 25.7 0.00 0.00 0.00 68 1027.6
20260508233101 11 85 11.3 25.7 0.00 0.00 0.00 68 1027.6
20260508232534 11 68 11.3 25.7 0.00 0.00 0.00 68 1027.5
20260508232034 11 66 12.9 25.7 0.00 0.00 0.00 68 1027.6
20260508231552 11 96 11.3 25.7 0.00 0.00 0.00 68 1027.6
20260508231036 11 82 8.0 25.7 0.00 0.00 0.00 68 1027.6
20260508230539 11 60 12.9 25.7 0.00 0.00 0.00 68 1027.4
20260508230050 11 55 9.7 29.0 0.00 0.00 0.00 68 1027.4
20260508225536 11 117 11.3 29.0 0.00 0.00 0.00 67 1027.6
20260508225039 11 83 12.9 29.0 0.00 0.00 0.00 67 1027.6
20260508224605 11 62 9.7 25.7 0.00 0.00 0.00 67 1027.4
20260508224037 11 64 11.3 25.7 0.00 0.00 0.00 67 1027.3
20260508223537 11 82 8.0 32.2 0.00 0.00 0.00 67 1027.4
20260508223047 11 104 9.7 32.2 0.00 0.00 0.00 67 1027.3
20260508222536 11 99 8.0 19.3 0.00 0.00 0.00 67 1027.3
20260508222036 11 124 8.0 19.3 0.00 0.00 0.00 67 1027.3
20260508221552 11 44 8.0 24.1 0.00 0.00 0.00 67 1027.1
20260508221037 11 62 8.0 24.1 0.00 0.00 0.00 67 1027.1
20260508220536 11 70 8.0 22.5 0.00 0.00 0.00 67 1027.1
20260508220055 11 48 8.0 17.7 0.00 0.00 0.00 66 1027.1
20260508215536 11 356 4.8 17.7 0.00 0.00 0.00 66 1027.2
20260508215038 11 64 4.8 16.1 0.00 0.00 0.00 67 1027.1
20260508214547 11 55 4.8 16.1 0.00 0.00 0.00 67 1027.2
20260508214040 11 37 4.8 22.5 0.00 0.00 0.00 67 1027.2
20260508213540 11 41 4.8 22.5 0.00 0.00 0.00 66 1027.1
20260508213042 11 97 4.8 22.5 0.00 0.00 0.00 66 1026.9
20260508212540 11 45 4.8 19.3 0.00 0.00 0.00 66 1026.8
20260508212037 11 91 6.4 19.3 0.00 0.00 0.00 66 1026.9
20260508211541 11 75 4.8 19.3 0.00 0.00 0.00 66 1026.8
20260508211037 11 33 4.8 16.1 0.00 0.00 0.00 66 1026.8
20260508210537 12 59 4.8 17.7 0.00 0.00 0.00 65 1026.8
20260508210050 12 49 6.4 17.7 0.00 0.00 0.00 65 1026.9
20260508205536 12 79 6.4 16.1 0.00 0.00 0.00 65 1026.7
20260508205036 12 53 6.4 14.5 0.00 0.00 0.00 65 1026.8
20260508204551 12 93 6.4 14.5 0.00 0.00 0.00 65 1026.9
20260508204036 12 47 6.4 16.1 0.00 0.00 0.00 64 1026.8
20260508203536 12 36 3.2 16.1 0.00 0.00 0.00 64 1026.8
20260508203055 12 104 6.4 16.1 0.00 0.00 0.00 64 1026.8
20260508202536 12 35 6.4 16.1 0.00 0.00 0.00 64 1026.6
20260508202037 12 7 4.8 19.3 0.00 0.00 0.00 64 1026.7
20260508201540 12 29 4.8 20.9 0.00 0.00 0.00 64 1026.7
20260508201037 12 56 4.8 20.9 0.00 0.00 0.00 63 1026.8
20260508200537 12 51 4.8 22.5 0.00 0.00 0.00 63 1026.6
20260508200050 12 91 3.2 22.5 0.00 0.00 0.00 63 1026.7
20260508195536 12 25 4.8 17.7 0.00 0.00 0.00 63 1026.5
20260508195039 12 10 4.8 20.9 0.00 0.00 0.00 62 1026.5
20260508194555 12 41 6.4 20.9 0.00 0.00 0.00 62 1026.5
20260508194036 12 81 4.8 19.3 0.00 0.00 0.00 62 1026.4
20260508193536 12 5 4.8 19.3 0.00 0.00 0.00 62 1026.4
20260508193045 12 357 4.8 19.3 0.00 0.00 0.00 62 1026.4
20260508192536 12 102 3.2 19.3 0.00 0.00 0.00 62 1026.4
20260508192037 12 114 8.0 27.4 0.00 0.00 0.00 61 1026.4
20260508191551 13 73 8.0 27.4 0.00 0.00 0.00 61 1026.3
20260508191036 13 347 6.4 20.9 0.00 0.00 0.00 61 1026.2
20260508190540 13 45 6.4 24.1 0.00 0.00 0.00 61 1026.3
20260508190045 13 19 8.0 24.1 0.00 0.00 0.00 61 1026.4
20260508185536 13 19 8.0 29.0 0.00 0.00 0.00 61 1026.2
20260508185040 13 72 8.0 29.0 0.00 0.00 0.00 61 1026.4
20260508184553 13 118 9.7 29.0 0.00 0.00 0.00 60 1026.4
20260508184038 13 56 8.0 27.4 0.00 0.00 0.00 60 1026.2
20260508183536 13 68 11.3 27.4 0.00 0.00 0.00 60 1026.2
20260508183053 13 112 9.7 27.4 0.00 0.00 0.00 60 1026.2
20260508182540 13 95 9.7 27.4 0.00 0.00 0.00 60 1026.2
20260508182036 13 79 9.7 27.4 0.00 0.00 0.00 60 1026.2
20260508181551 13 35 11.3 30.6 0.00 0.00 0.00 60 1026.2
20260508181036 13 31 9.7 30.6 0.00 0.00 0.00 59 1026.1
20260508180537 13 112 11.3 30.6 0.00 0.00 0.00 59 1026.0
20260508180049 13 137 11.3 30.6 0.00 0.00 0.00 59 1026.0
20260508175536 13 12 14.5 30.6 0.00 0.00 0.00 58 1026.1
20260508175037 13 29 12.9 33.8 0.00 0.00 0.00 58 1026.1
20260508174603 13 62 16.1 35.4 0.00 0.00 0.00 58 1026.0
20260508174038 14 58 16.1 35.4 0.00 0.00 0.00 58 1025.8
20260508173536 14 64 12.9 30.6 0.00 0.00 0.00 57 1026.1
20260508173048 14 70 14.5 41.8 0.00 0.00 0.00 57 1026.1
20260508172536 14 97 16.1 41.8 0.00 0.00 0.00 57 1026.1
20260508172038 14 87 11.3 29.0 0.00 0.00 0.00 57 1026.3
20260508171539 14 100 9.7 29.0 0.00 0.00 0.00 57 1026.3
20260508171036 14 62 11.3 30.6 0.00 0.00 0.00 56 1026.3
20260508170536 14 79 12.9 32.2 0.00 0.00 0.00 56 1026.1
20260508170052 14 79 14.5 32.2 0.00 0.00 0.00 56 1026.0
20260508165536 14 61 11.3 32.2 0.00 0.00 0.00 56 1026.2
20260508165036 14 54 14.5 30.6 0.00 0.00 0.00 56 1026.1
20260508164543 14 59 14.5 30.6 0.00 0.00 0.00 56 1026.1
20260508164036 14 110 11.3 30.6 0.00 0.00 0.00 56 1026.2
20260508163537 15 81 11.3 30.6 0.00 0.00 0.00 56 1026.0
20260508163043 15 96 11.3 30.6 0.00 0.00 0.00 56 1026.2
20260508162537 15 49 14.5 30.6 0.00 0.00 0.00 56 1026.1
20260508162035 15 47 12.9 27.4 0.00 0.00 0.00 55 1025.9
20260508161545 15 103 12.9 38.6 0.00 0.00 0.00 55 1026.0
20260508161037 15 71 14.5 38.6 0.00 0.00 0.00 55 1026.0
20260508160536 15 101 11.3 30.6 0.00 0.00 0.00 55 1025.9
20260508160048 15 4 12.9 27.4 0.00 0.00 0.00 55 1025.9
20260508155537 15 83 14.5 30.6 0.00 0.00 0.00 55 1025.8
20260508155036 15 4 14.5 30.6 0.00 0.00 0.00 54 1026.0
20260508154547 15 85 11.3 30.6 0.00 0.00 0.00 54 1026.0
20260508154036 15 78 14.5 30.6 0.00 0.00 0.00 54 1026.1
20260508153536 15 116 11.3 30.6 0.00 0.00 0.00 53 1026.0
20260508153046 15 113 12.9 25.7 0.00 0.00 0.00 53 1026.1
20260508152536 15 89 8.0 25.7 0.00 0.00 0.00 53 1026.1
20260508152036 15 117 11.3 25.7 0.00 0.00 0.00 52 1026.2
20260508151543 15 82 12.9 25.7 0.00 0.00 0.00 52 1026.2
20260508151035 15 85 11.3 25.7 0.00 0.00 0.00 52 1026.3
20260508150537 15 54 9.7 25.7 0.00 0.00 0.00 51 1026.3
20260508150050 15 76 11.3 24.1 0.00 0.00 0.00 52 1026.5
20260508145537 15 81 11.3 24.1 0.00 0.00 0.00 52 1026.4
20260508145037 15 75 8.0 24.1 0.00 0.00 0.00 52 1026.5
20260508144544 15 93 6.4 24.1 0.00 0.00 0.00 52 1026.7
20260508144036 15 98 9.7 24.1 0.00 0.00 0.00 52 1026.6
20260508143537 15 97 9.7 24.1 0.00 0.00 0.00 52 1026.7
20260508143055 15 119 6.4 22.5 0.00 0.00 0.00 53 1026.7
20260508142536 15 81 6.4 27.4 0.00 0.00 0.00 52 1026.7
20260508142036 15 85 8.0 29.0 0.00 0.00 0.00 53 1026.5
20260508141544 15 58 8.0 29.0 0.00 0.00 0.00 53 1026.6
20260508141035 15 98 9.7 29.0 0.00 0.00 0.00 53 1026.7
20260508140536 15 64 9.7 25.7 0.00 0.00 0.00 53 1026.6
20260508140054 15 135 9.7 25.7 0.00 0.00 0.00 53 1026.5
20260508135538 15 110 11.3 25.7 0.00 0.00 0.00 53 1026.5
20260508135036 15 57 9.7 25.7 0.00 0.00 0.00 53 1026.5
20260508134541 16 10 9.7 20.9 0.00 0.00 0.00 53 1026.6
20260508134036 16 39 9.7 22.5 0.00 0.00 0.00 54 1026.3
20260508133539 16 77 8.0 22.5 0.00 0.00 0.00 54 1026.4
20260508133055 16 72 11.3 29.0 0.00 0.00 0.00 54 1026.3
20260508132536 16 77 8.0 29.0 0.00 0.00 0.00 55 1026.4
20260508132036 15 82 11.3 29.0 0.00 0.00 0.00 55 1026.3
20260508131550 15 56 4.8 22.5 0.00 0.00 0.00 56 1026.3
20260508131036 15 83 8.0 20.9 0.00 0.00 0.00 56 1026.4
20260508130536 16 119 6.4 17.7 0.00 0.00 0.00 56 1026.4
20260508130100 16 99 6.4 17.7 0.00 0.00 0.00 56 1026.3
20260508125536 16 37 8.0 17.7 0.00 0.00 0.00 56 1026.2
20260508125036 16 69 4.8 17.7 0.00 0.00 0.00 56 1026.2
20260508124547 16 61 8.0 24.1 0.00 0.00 0.00 56 1026.2
20260508124039 16 34 8.0 24.1 0.00 0.00 0.00 55 1026.2
20260508123536 16 97 9.7 24.1 0.00 0.00 0.00 56 1026.2
20260508123052 16 95 8.0 20.9 0.00 0.00 0.00 55 1026.1
20260508122537 16 64 8.0 22.5 0.00 0.00 0.00 55 1026.3
20260508122036 16 35 6.4 27.4 0.00 0.00 0.00 56 1026.1
20260508121547 16 139 4.8 27.4 0.00 0.00 0.00 55 1026.2
20260508121036 16 115 9.7 27.4 0.00 0.00 0.00 55 1026.3
20260508120536 16 52 6.4 20.9 0.00 0.00 0.00 55 1026.2
20260508120049 16 47 6.4 19.3 0.00 0.00 0.00 55 1026.3
20260508115535 16 81 4.8 17.7 0.00 0.00 0.00 55 1026.4
20260508115037 16 59 6.4 17.7 0.00 0.00 0.00 55 1026.3
20260508114552 16 87 4.8 16.1 0.00 0.00 0.00 55 1026.4
20260508114037 16 142 4.8 17.7 0.00 0.00 0.00 55 1026.3
20260508113538 16 110 4.8 17.7 0.00 0.00 0.00 55 1026.4
20260508113046 16 91 6.4 17.7 0.00 0.00 0.00 55 1026.4
20260508112536 16 45 6.4 14.5 0.00 0.00 0.00 55 1026.4
20260508112036 16 64 3.2 14.5 0.00 0.00 0.00 55 1026.3
20260508111552 16 90 4.8 14.5 0.00 0.00 0.00 54 1026.4
20260508111036 16 93 4.8 14.5 0.00 0.00 0.00 54 1026.4
20260508110536 16 41 4.8 14.5 0.00 0.00 0.00 54 1026.4
20260508110044 17 46 0.0 16.1 0.00 0.00 0.00 54 1026.6
20260508105536 17 0 3.2 19.3 0.00 0.00 0.00 53 1026.5
20260508105039 17 77 6.4 19.3 0.00 0.00 0.00 53 1026.5
20260508104558 17 93 4.8 17.7 0.00 0.00 0.00 54 1026.5
20260508104036 17 107 4.8 17.7 0.00 0.00 0.00 53 1026.5
20260508103537 17 72 4.8 17.7 0.00 0.00 0.00 53 1026.5
20260508103051 17 68 6.4 17.7 0.00 0.00 0.00 53 1026.4
20260508102536 17 84 3.2 17.7 0.00 0.00 0.00 53 1026.4
20260508102036 17 95 3.2 17.7 0.00 0.00 0.00 53 1026.4
20260508101547 17 87 4.8 17.7 0.00 0.00 0.00 52 1026.4
20260508101036 17 93 4.8 14.5 0.00 0.00 0.00 52 1026.3
20260508100537 17 87 4.8 17.7 0.00 0.00 0.00 52 1026.3
20260508100044 18 68 6.4 17.7 0.00 0.00 0.00 51 1026.4
20260508095536 18 77 3.2 16.1 0.00 0.00 0.00 51 1026.4
20260508095039 18 101 6.4 17.7 0.00 0.00 0.00 51 1026.4
20260508094547 18 74 4.8 20.9 0.00 0.00 0.00 51 1026.4
20260508094037 18 58 6.4 20.9 0.00 0.00 0.00 51 1026.4
20260508093537 18 101 9.7 20.9 0.00 0.00 0.00 50 1026.3
20260508093045 18 117 4.8 19.3 0.00 0.00 0.00 51 1026.4
20260508092536 18 115 9.7 20.9 0.00 0.00 0.00 51 1026.3
20260508092036 18 61 6.4 20.9 0.00 0.00 0.00 51 1026.3
20260508091556 18 82 4.8 20.9 0.00 0.00 0.00 51 1026.3
20260508091036 18 82 3.2 14.5 0.00 0.00 0.00 51 1026.3
20260508090536 19 83 3.2 14.5 0.00 0.00 0.00 50 1026.2
20260508090054 19 83 6.4 17.7 0.00 0.00 0.00 50 1026.1
20260508085535 19 85 4.8 17.7 0.00 0.00 0.00 49 1026.0
20260508085035 20 85 8.0 17.7 0.00 0.00 0.00 49 1026.0
20260508084548 20 75 6.4 17.7 0.00 0.00 0.00 49 1025.9
20260508084036 20 45 6.4 17.7 0.00 0.00 0.00 48 1025.9
20260508083535 20 29 6.4 27.4 0.00 0.00 0.00 48 1025.8
20260508083039 20 61 4.8 27.4 0.00 0.00 0.00 48 1026.1
20260508082535 20 64 8.0 27.4 0.00 0.00 0.00 48 1026.0
20260508082036 20 52 4.8 29.0 0.00 0.00 0.00 48 1026.0
20260508081552 20 112 8.0 29.0 0.00 0.00 0.00 47 1026.0
20260508081036 21 62 12.9 27.4 0.00 0.00 0.00 47 1026.0
20260508080536 21 81 8.0 25.7 0.00 0.00 0.00 47 1025.9
20260508080053 21 56 8.0 25.7 0.00 0.00 0.00 48 1025.9
20260508075535 21 55 4.8 25.7 0.00 0.00 0.00 47 1026.0
20260508075037 21 87 6.4 22.5 0.00 0.00 0.00 48 1026.0
20260508074539 21 128 4.8 17.7 0.00 0.00 0.00 47 1026.0
20260508074036 22 37 4.8 20.9 0.00 0.00 0.00 47 1025.8
20260508073536 21 28 6.4 22.5 0.00 0.00 0.00 48 1025.9
20260508073045 21 41 9.7 22.5 0.00 0.00 0.00 47 1025.8
20260508072536 22 121 6.4 16.1 0.00 0.00 0.00 47 1025.9
20260508072037 21 0 4.8 17.7 0.00 0.00 0.00 47 1025.9
20260508071554 22 70 6.4 20.9 0.00 0.00 0.00 48 1025.9
20260508071036 21 35 4.8 22.5 0.00 0.00 0.00 47 1026.0
20260508070537 21 20 8.0 22.5 0.00 0.00 0.00 47 1025.9
20260508070058 22 97 4.8 19.3 0.00 0.00 0.00 46 1025.8
20260508065540 22 34 4.8 22.5 0.00 0.00 0.00 46 1026.0
20260508065037 22 134 4.8 24.1 0.00 0.00 0.00 46 1026.0
20260508064542 21 75 6.4 24.1 0.00 0.00 0.00 46 1025.9
20260508064038 22 92 4.8 17.7 0.00 0.00 0.00 46 1026.0
20260508063536 22 83 4.8 24.1 0.00 0.00 0.00 46 1026.0
20260508063039 21 332 4.8 24.1 0.00 0.00 0.00 48 1025.9
20260508062536 21 93 9.7 20.9 0.00 0.00 0.00 47 1026.0
20260508062036 21 93 9.7 24.1 0.00 0.00 0.00 48 1026.0
20260508061540 21 31 8.0 24.1 0.00 0.00 0.00 47 1026.2
20260508061037 21 44 6.4 24.1 0.00 0.00 0.00 48 1026.2
20260508060537 21 98 6.4 20.9 0.00 0.00 0.00 48 1026.2
20260508060045 21 15 4.8 20.9 0.00 0.00 0.00 48 1026.3
20260508055539 21 339 6.4 25.7 0.00 0.00 0.00 48 1026.3
20260508055037 21 81 9.7 25.7 0.00 0.00 0.00 48 1026.5
20260508054547 21 87 6.4 20.9 0.00 0.00 0.00 50 1026.4
20260508054037 21 102 6.4 25.7 0.00 0.00 0.00 51 1026.4
20260508053539 21 49 9.7 25.7 0.00 0.00 0.00 49 1026.5
20260508053050 21 42 8.0 20.9 0.00 0.00 0.00 49 1026.4
20260508052538 21 133 6.4 20.9 0.00 0.00 0.00 52 1026.6
20260508052036 21 67 6.4 20.9 0.00 0.00 0.00 51 1026.7
20260508051542 21 1 8.0 24.1 0.00 0.00 0.00 52 1026.8
20260508051036 20 356 9.7 24.1 0.00 0.00 0.00 52 1026.9
20260508050538 21 99 6.4 20.9 0.00 0.00 0.00 53 1026.9
20260508050047 21 88 6.4 20.9 0.00 0.00 0.00 54 1027.0
20260508045536 20 64 4.8 17.7 0.00 0.00 0.00 54 1027.0
20260508045038 21 101 6.4 17.7 0.00 0.00 0.00 53 1027.1
20260508044548 21 330 8.0 14.5 0.00 0.00 0.00 53 1027.1
20260508044038 21 324 6.4 16.1 0.00 0.00 0.00 53 1027.3
20260508043536 21 4 4.8 24.1 0.00 0.00 0.00 53 1027.3
20260508043045 20 105 8.0 24.1 0.00 0.00 0.00 54 1027.6
20260508042536 20 19 6.4 22.5 0.00 0.00 0.00 55 1027.7
20260508042036 20 5 6.4 19.3 0.00 0.00 0.00 55 1027.7
20260508041541 20 18 6.4 20.9 0.00 0.00 0.00 55 1027.9
20260508041036 20 45 8.0 25.7 0.00 0.00 0.00 56 1028.0
20260508040536 19 70 6.4 25.7 0.00 0.00 0.00 56 1028.3
20260508040043 20 131 8.0 19.3 0.00 0.00 0.00 55 1028.3
20260508035536 20 46 4.8 19.3 0.00 0.00 0.00 55 1028.3
20260508035036 20 69 4.8 20.9 0.00 0.00 0.00 58 1028.5
20260508034548 19 79 6.4 20.9 0.00 0.00 0.00 58 1028.5
20260508034036 20 89 4.8 16.1 0.00 0.00 0.00 58 1028.5
20260508033535 19 360 4.8 16.1 0.00 0.00 0.00 59 1028.6
20260508033109 19 18 4.8 20.9 0.00 0.00 0.00 59 1028.9
20260508032536 18 355 8.0 27.4 0.00 0.00 0.00 60 1028.9
20260508032035 18 75 11.3 27.4 0.00 0.00 0.00 59 1029.0
20260508031540 19 348 8.0 25.7 0.00 0.00 0.00 59 1029.0
20260508031039 18 351 6.4 19.3 0.00 0.00 0.00 59 1029.1
20260508030535 18 33 3.2 12.9 0.00 0.00 0.00 60 1029.1
20260508030042 19 349 4.8 17.7 0.00 0.00 0.00 59 1029.1
20260508025538 18 35 6.4 22.5 0.00 0.00 0.00 60 1029.1
20260508025037 18 89 6.4 22.5 0.00 0.00 0.00 61 1029.2